Погода в Толвуе

Россия / Республика Карелия     62°30′34″N   35°16′58″E
темп.,
°C
ветер,
м/с
пор.,
м/с
влажн.,
%
обл.,
%
осадки,
мм/ч
давл.,
гПа
погр.,
м
4 июля, пн
пн400:00+18ююв24755 0.0 101548
03:00+16юв22845 0.1 101514
06:00+17ююв239423 0.9 101583
09:00+22ю12707 1.1 1015419
12:00+25ююв23556 1.0 10141135
15:00+26ю334840 1.4 10131455
18:00+25юз235712 0.4 1013521
21:00+21ююз23798 0.5 101363
5 июля, вт
вт500:00+17ююз239065 0.5 101265
03:00+16ююв23906 0.5 101251
06:00+18ююз24785 0.0 1012130
09:00+22ююз256366 0.0 1011506
12:00+24ю45518 0.0 10111059
15:00+25ю344678 0.0 10101392
18:00+17зсз269694 1.4 1010195
21:00+17ю119429 1.4 100924
6 июля, ср
ср600:00+15ю499834 0.0 1009179
03:00+14ююз2797100 0.0 1009150
06:00+15юз38840 0.0 1009253
09:00+19зюз47565 0.0 1010792
12:00+21зюз46440 0.0 10101593
15:00+22юз4640100 0.0 10102003
18:00+19з2457100 0.0 1010143
21:00+17ююв2269100 0.0 101016
7 июля, чт
чт700:00+15юз2274100 0.0 101019
03:00+14ю2274100 0.0 101015
06:00+14ю2290100 0.3 101060
09:00+16ююз248813 2.3 1009329
12:00+19юз136916 1.8 1009991
15:00+18зюз35801 3.5 1010917
18:00+21зюз1353100 0.4 10101309
21:00+16ю2481100 0.6 101181
8 июля, пт
пт800:00+14юз397610 0.0 1011140
03:00+15юз397397 0.0 1012234
06:00+15юз3107221 0.0 1012387
09:00+17юз486233 0.0 1012740
12:00+19юз3656100 0.3 10121401
15:00+17ююз6972100 0.5 1012447
18:00+17юз4771100 0.0 1012390
21:00+16юз367475 0.0 1012188